Data supplied by UK-AIR on 5/4/2008
All Data GMT hour ending 
Status: R =Ratified P=Provisional,P*=As supplied
,,West London,,,,,,,,,,,,,,,,,,,,,,,
Date,time,"Carbon monoxide",status,unit,"Nitric oxide",status,unit,"Nitrogen dioxide",status,unit,"Nitrogen oxides as nitrogen dioxide",status,unit
 
01-01-1990,01:00,,,,30,R,ugm-3,44,R,ugm-3,90,R,ugm-3
01-01-1990,02:00,,,,40,R,ugm-3,46,R,ugm-3,107,R,ugm-3
01-01-1990,03:00,,,,25,R,ugm-3,40,R,ugm-3,78,R,ugm-3
01-01-1990,04:00,,,,23,R,ugm-3,40,R,ugm-3,74,R,ugm-3
01-01-1990,05:00,,,,18,R,ugm-3,38,R,ugm-3,65,R,ugm-3
01-01-1990,06:00,,,,13,R,ugm-3,42,R,ugm-3,61,R,ugm-3
01-01-1990,07:00,,,,13,R,ugm-3,36,R,ugm-3,55,R,ugm-3
01-01-1990,08:00,,,,15,R,ugm-3,40,R,ugm-3,63,R,ugm-3
01-01-1990,09:00,,,,19,R,ugm-3,38,R,ugm-3,67,R,ugm-3
01-01-1990,10:00,,,,21,R,ugm-3,32,R,ugm-3,65,R,ugm-3
01-01-1990,11:00,,,,25,R,ugm-3,34,R,ugm-3,73,R,ugm-3
01-01-1990,12:00,,,,29,R,ugm-3,40,R,ugm-3,84,R,ugm-3
01-01-1990,13:00,,,,40,R,ugm-3,44,R,ugm-3,105,R,ugm-3
01-01-1990,14:00,,,,58,R,ugm-3,50,R,ugm-3,138,R,ugm-3
01-01-1990,15:00,,,,50,R,ugm-3,50,R,ugm-3,126,R,ugm-3
01-01-1990,16:00,,,,44,R,ugm-3,53,R,ugm-3,120,R,ugm-3
01-01-1990,17:00,,,,56,R,ugm-3,59,R,ugm-3,145,R,ugm-3
01-01-1990,18:00,,,,73,R,ugm-3,57,R,ugm-3,168,R,ugm-3
01-01-1990,19:00,,,,88,R,ugm-3,69,R,ugm-3,202,R,ugm-3
01-01-1990,20:00,,,,80,R,ugm-3,61,R,ugm-3,183,R,ugm-3
01-01-1990,21:00,,,,99,R,ugm-3,55,R,ugm-3,206,R,ugm-3
01-01-1990,22:00,,,,125,R,ugm-3,50,R,ugm-3,241,R,ugm-3
01-01-1990,23:00,,,,208,R,ugm-3,80,R,ugm-3,397,R,ugm-3
01-01-1990,24:00,,,,139,R,ugm-3,71,R,ugm-3,283,R,ugm-3
02-01-1990,01:00,,,,106,R,ugm-3,67,R,ugm-3,229,R,ugm-3
02-01-1990,02:00,,,,65,R,ugm-3,59,R,ugm-3,159,R,ugm-3
02-01-1990,03:00,,,,46,R,ugm-3,57,R,ugm-3,128,R,ugm-3
02-01-1990,04:00,,,,65,R,ugm-3,59,R,ugm-3,159,R,ugm-3
02-01-1990,05:00,,,,90,R,ugm-3,59,R,ugm-3,197,R,ugm-3
02-01-1990,06:00,,,,105,R,ugm-3,65,R,ugm-3,225,R,ugm-3
02-01-1990,07:00,,,,221,R,ugm-3,78,R,ugm-3,416,R,ugm-3
02-01-1990,08:00,,,,299,R,ugm-3,90,R,ugm-3,546,R,ugm-3
02-01-1990,09:00,,,,365,R,ugm-3,101,R,ugm-3,659,R,ugm-3
02-01-1990,10:00,,,,181,R,ugm-3,94,R,ugm-3,371,R,ugm-3
02-01-1990,11:00,,,,108,R,ugm-3,84,R,ugm-3,248,R,ugm-3
02-01-1990,12:00,,,,90,R,ugm-3,71,R,ugm-3,208,R,ugm-3
02-01-1990,13:00,,,,51,R,ugm-3,67,R,ugm-3,145,R,ugm-3
02-01-1990,14:00,,,,63,R,ugm-3,67,R,ugm-3,162,R,ugm-3
02-01-1990,15:00,,,,49,R,ugm-3,57,R,ugm-3,132,R,ugm-3
02-01-1990,16:00,,,,65,R,ugm-3,88,R,ugm-3,187,R,ugm-3
02-01-1990,17:00,,,,73,R,ugm-3,76,R,ugm-3,187,R,ugm-3
02-01-1990,18:00,,,,66,R,ugm-3,76,R,ugm-3,178,R,ugm-3
02-01-1990,19:00,,,,90,R,ugm-3,78,R,ugm-3,216,R,ugm-3
02-01-1990,20:00,,,,69,R,ugm-3,73,R,ugm-3,178,R,ugm-3
02-01-1990,21:00,,,,69,R,ugm-3,73,R,ugm-3,178,R,ugm-3
02-01-1990,22:00,,,,40,R,ugm-3,63,R,ugm-3,124,R,ugm-3
02-01-1990,23:00,,,,26,R,ugm-3,52,R,ugm-3,92,R,ugm-3
02-01-1990,24:00,,,,23,R,ugm-3,46,R,ugm-3,80,R,ugm-3
03-01-1990,01:00,,,,14,R,ugm-3,40,R,ugm-3,61,R,ugm-3
03-01-1990,02:00,,,,13,R,ugm-3,44,R,ugm-3,63,R,ugm-3
03-01-1990,03:00,,,,15,R,ugm-3,48,R,ugm-3,71,R,ugm-3
03-01-1990,04:00,,,,10,R,ugm-3,46,R,ugm-3,61,R,ugm-3
03-01-1990,05:00,,,,10,R,ugm-3,40,R,ugm-3,55,R,ugm-3
03-01-1990,06:00,,,,14,R,ugm-3,52,R,ugm-3,73,R,ugm-3
03-01-1990,07:00,,,,34,R,ugm-3,52,R,ugm-3,103,R,ugm-3
03-01-1990,08:00,,,,59,R,ugm-3,55,R,ugm-3,145,R,ugm-3
03-01-1990,09:00,,,,69,R,ugm-3,53,R,ugm-3,159,R,ugm-3
03-01-1990,10:00,,,,55,R,ugm-3,52,R,ugm-3,136,R,ugm-3
03-01-1990,11:00,,,,56,R,ugm-3,57,R,ugm-3,143,R,ugm-3
03-01-1990,12:00,,,,68,R,ugm-3,57,R,ugm-3,160,R,ugm-3
03-01-1990,13:00,,,,65,R,ugm-3,57,R,ugm-3,157,R,ugm-3
03-01-1990,14:00,,,,54,R,ugm-3,55,R,ugm-3,138,R,ugm-3
03-01-1990,15:00,,,,64,R,ugm-3,55,R,ugm-3,153,R,ugm-3
03-01-1990,16:00,,,,75,R,ugm-3,61,R,ugm-3,176,R,ugm-3
03-01-1990,17:00,,,,93,R,ugm-3,63,R,ugm-3,204,R,ugm-3
03-01-1990,18:00,,,,114,R,ugm-3,65,R,ugm-3,239,R,ugm-3
03-01-1990,19:00,,,,138,R,ugm-3,65,R,ugm-3,275,R,ugm-3
03-01-1990,20:00,,,,163,R,ugm-3,65,R,ugm-3,313,R,ugm-3
03-01-1990,21:00,,,,113,R,ugm-3,59,R,ugm-3,231,R,ugm-3
03-01-1990,22:00,,,,63,R,ugm-3,57,R,ugm-3,153,R,ugm-3
03-01-1990,23:00,,,,69,R,ugm-3,55,R,ugm-3,160,R,ugm-3
03-01-1990,24:00,,,,71,R,ugm-3,53,R,ugm-3,162,R,ugm-3
04-01-1990,01:00,,,,36,R,ugm-3,52,R,ugm-3,107,R,ugm-3
04-01-1990,02:00,,,,30,R,ugm-3,50,R,ugm-3,96,R,ugm-3
04-01-1990,03:00,,,,21,R,ugm-3,44,R,ugm-3,76,R,ugm-3
04-01-1990,04:00,,,,9,R,ugm-3,36,R,ugm-3,50,R,ugm-3
04-01-1990,05:00,,,,14,R,ugm-3,38,R,ugm-3,59,R,ugm-3
04-01-1990,06:00,,,,24,R,ugm-3,50,R,ugm-3,86,R,ugm-3
04-01-1990,07:00,,,,73,R,ugm-3,61,R,ugm-3,172,R,ugm-3
04-01-1990,08:00,,,,134,R,ugm-3,76,R,ugm-3,281,R,ugm-3
04-01-1990,09:00,,,,186,R,ugm-3,92,R,ugm-3,376,R,ugm-3
04-01-1990,10:00,,,,256,R,ugm-3,115,R,ugm-3,506,R,ugm-3
04-01-1990,11:00,,,,219,R,ugm-3,94,R,ugm-3,428,R,ugm-3
04-01-1990,12:00,,,,171,R,ugm-3,80,R,ugm-3,342,R,ugm-3
04-01-1990,13:00,,,,179,R,ugm-3,86,R,ugm-3,359,R,ugm-3
04-01-1990,14:00,,,,154,R,ugm-3,78,R,ugm-3,313,R,ugm-3
04-01-1990,15:00,,,,156,R,ugm-3,82,R,ugm-3,321,R,ugm-3
04-01-1990,16:00,,,,275,R,ugm-3,90,R,ugm-3,510,R,ugm-3
04-01-1990,17:00,,,,249,R,ugm-3,84,R,ugm-3,464,R,ugm-3
04-01-1990,18:00,,,,254,R,ugm-3,76,R,ugm-3,464,R,ugm-3
04-01-1990,19:00,,,,314,R,ugm-3,78,R,ugm-3,558,R,ugm-3
04-01-1990,20:00,,,,390,R,ugm-3,88,R,ugm-3,684,R,ugm-3
04-01-1990,21:00,,,,336,R,ugm-3,80,R,ugm-3,594,R,ugm-3
04-01-1990,22:00,,,,204,R,ugm-3,59,R,ugm-3,371,R,ugm-3
04-01-1990,23:00,,,,145,R,ugm-3,55,R,ugm-3,277,R,ugm-3
04-01-1990,24:00,,,,65,R,ugm-3,52,R,ugm-3,151,R,ugm-3
05-01-1990,01:00,,,,46,R,ugm-3,52,R,ugm-3,122,R,ugm-3
05-01-1990,02:00,,,,55,R,ugm-3,52,R,ugm-3,136,R,ugm-3
05-01-1990,03:00,,,,21,R,ugm-3,46,R,ugm-3,78,R,ugm-3
05-01-1990,04:00,,,,24,R,ugm-3,48,R,ugm-3,84,R,ugm-3
05-01-1990,05:00,,,,26,R,ugm-3,52,R,ugm-3,92,R,ugm-3
05-01-1990,06:00,,,,49,R,ugm-3,55,R,ugm-3,130,R,ugm-3
05-01-1990,07:00,,,,85,R,ugm-3,59,R,ugm-3,189,R,ugm-3
05-01-1990,08:00,,,,133,R,ugm-3,67,R,ugm-3,269,R,ugm-3
05-01-1990,09:00,,,,149,R,ugm-3,78,R,ugm-3,306,R,ugm-3
05-01-1990,10:00,,,,174,R,ugm-3,80,R,ugm-3,346,R,ugm-3
05-01-1990,11:00,,,,108,R,ugm-3,76,R,ugm-3,241,R,ugm-3
05-01-1990,12:00,,,,116,R,ugm-3,74,R,ugm-3,252,R,ugm-3
05-01-1990,13:00,,,,83,R,ugm-3,71,R,ugm-3,197,R,ugm-3
05-01-1990,14:00,,,,54,R,ugm-3,61,R,ugm-3,143,R,ugm-3
05-01-1990,15:00,,,,70,R,ugm-3,65,R,ugm-3,172,R,ugm-3
05-01-1990,16:00,,,,60,R,ugm-3,65,R,ugm-3,157,R,ugm-3
05-01-1990,17:00,,,,61,R,ugm-3,59,R,ugm-3,153,R,ugm-3
05-01-1990,18:00,,,,60,R,ugm-3,63,R,ugm-3,155,R,ugm-3
05-01-1990,19:00,,,,54,R,ugm-3,63,R,ugm-3,145,R,ugm-3
05-01-1990,20:00,,,,68,R,ugm-3,61,R,ugm-3,164,R,ugm-3
05-01-1990,21:00,,,,44,R,ugm-3,55,R,ugm-3,122,R,ugm-3
05-01-1990,22:00,,,,24,R,ugm-3,48,R,ugm-3,84,R,ugm-3
05-01-1990,23:00,,,,28,R,ugm-3,46,R,ugm-3,88,R,ugm-3
05-01-1990,24:00,,,,18,R,ugm-3,36,R,ugm-3,63,R,ugm-3
06-01-1990,01:00,,,,11,R,ugm-3,34,R,ugm-3,52,R,ugm-3
06-01-1990,02:00,,,,9,R,ugm-3,32,R,ugm-3,46,R,ugm-3
06-01-1990,03:00,,,,9,R,ugm-3,31,R,ugm-3,44,R,ugm-3
06-01-1990,04:00,,,,8,R,ugm-3,29,R,ugm-3,40,R,ugm-3
06-01-1990,05:00,,,,8,R,ugm-3,32,R,ugm-3,44,R,ugm-3
06-01-1990,06:00,,,,9,R,ugm-3,32,R,ugm-3,46,R,ugm-3
06-01-1990,07:00,,,,11,R,ugm-3,40,R,ugm-3,57,R,ugm-3
06-01-1990,08:00,,,,25,R,ugm-3,48,R,ugm-3,86,R,ugm-3
06-01-1990,09:00,,,,46,R,ugm-3,53,R,ugm-3,124,R,ugm-3
06-01-1990,10:00,,,,56,R,ugm-3,55,R,ugm-3,141,R,ugm-3
06-01-1990,11:00,,,,70,R,ugm-3,53,R,ugm-3,160,R,ugm-3
06-01-1990,12:00,,,,81,R,ugm-3,53,R,ugm-3,178,R,ugm-3
06-01-1990,13:00,,,,81,R,ugm-3,61,R,ugm-3,185,R,ugm-3
06-01-1990,14:00,,,,70,R,ugm-3,61,R,ugm-3,168,R,ugm-3
06-01-1990,15:00,,,,58,R,ugm-3,65,R,ugm-3,153,R,ugm-3
06-01-1990,16:00,,,,54,R,ugm-3,55,R,ugm-3,138,R,ugm-3
06-01-1990,17:00,,,,45,R,ugm-3,55,R,ugm-3,124,R,ugm-3
06-01-1990,18:00,,,,53,R,ugm-3,46,R,ugm-3,126,R,ugm-3
06-01-1990,19:00,,,,74,R,ugm-3,,,,,,
06-01-1990,20:00,,,,83,R,ugm-3,21,R,ugm-3,147,R,ugm-3
06-01-1990,21:00,,,,68,R,ugm-3,,,,,,
06-01-1990,22:00,,,,58,R,ugm-3,21,R,ugm-3,109,R,ugm-3
06-01-1990,23:00,,,,53,R,ugm-3,31,R,ugm-3,111,R,ugm-3
06-01-1990,24:00,,,,53,R,ugm-3,21,R,ugm-3,101,R,ugm-3
07-01-1990,01:00,,,,71,R,ugm-3,,,,,,
07-01-1990,02:00,,,,74,R,ugm-3,36,R,ugm-3,149,R,ugm-3
07-01-1990,03:00,,,,36,R,ugm-3,23,R,ugm-3,78,R,ugm-3
07-01-1990,04:00,,,,50,R,ugm-3,25,R,ugm-3,101,R,ugm-3
07-01-1990,05:00,,,,41,R,ugm-3,21,R,ugm-3,84,R,ugm-3
07-01-1990,06:00,,,,58,R,ugm-3,19,R,ugm-3,107,R,ugm-3
07-01-1990,07:00,,,,76,R,ugm-3,25,R,ugm-3,141,R,ugm-3
07-01-1990,08:00,,,,133,R,ugm-3,36,R,ugm-3,239,R,ugm-3
07-01-1990,09:00,,,,268,R,ugm-3,32,R,ugm-3,441,R,ugm-3
07-01-1990,10:00,,,,249,R,ugm-3,34,R,ugm-3,414,R,ugm-3
07-01-1990,11:00,,,,209,R,ugm-3,44,R,ugm-3,363,R,ugm-3
07-01-1990,12:00,,,,169,R,ugm-3,40,R,ugm-3,298,R,ugm-3
07-01-1990,13:00,,,,149,R,ugm-3,50,R,ugm-3,277,R,ugm-3
07-01-1990,14:00,,,,146,R,ugm-3,42,R,ugm-3,265,R,ugm-3
07-01-1990,15:00,,,,126,R,ugm-3,42,R,ugm-3,235,R,ugm-3
07-01-1990,16:00,,,,155,R,ugm-3,42,R,ugm-3,279,R,ugm-3
07-01-1990,17:00,,,,195,R,ugm-3,46,R,ugm-3,344,R,ugm-3
07-01-1990,18:00,,,,179,R,ugm-3,48,R,ugm-3,321,R,ugm-3
07-01-1990,19:00,,,,174,R,ugm-3,50,R,ugm-3,315,R,ugm-3
07-01-1990,20:00,,,,141,R,ugm-3,50,R,ugm-3,265,R,ugm-3
07-01-1990,21:00,,,,69,R,ugm-3,50,R,ugm-3,155,R,ugm-3
07-01-1990,22:00,,,,61,R,ugm-3,44,R,ugm-3,138,R,ugm-3
07-01-1990,23:00,,,,40,R,ugm-3,42,R,ugm-3,103,R,ugm-3
07-01-1990,24:00,,,,26,R,ugm-3,36,R,ugm-3,76,R,ugm-3
08-01-1990,01:00,,,,14,R,ugm-3,25,R,ugm-3,46,R,ugm-3
08-01-1990,02:00,,,,10,R,ugm-3,15,R,ugm-3,31,R,ugm-3
08-01-1990,03:00,,,,9,R,ugm-3,8,R,ugm-3,21,R,ugm-3
08-01-1990,04:00,,,,9,R,ugm-3,13,R,ugm-3,27,R,ugm-3
08-01-1990,05:00,,,,13,R,ugm-3,29,R,ugm-3,48,R,ugm-3
08-01-1990,06:00,,,,13,R,ugm-3,36,R,ugm-3,55,R,ugm-3
08-01-1990,07:00,,,,59,R,ugm-3,57,R,ugm-3,147,R,ugm-3
08-01-1990,08:00,,,,149,R,ugm-3,65,R,ugm-3,292,R,ugm-3
08-01-1990,09:00,,,,324,R,ugm-3,73,R,ugm-3,567,R,ugm-3
08-01-1990,10:00,,,,351,R,ugm-3,82,R,ugm-3,619,R,ugm-3
08-01-1990,11:00,,,,253,R,ugm-3,80,R,ugm-3,466,R,ugm-3
08-01-1990,12:00,,,,145,R,ugm-3,69,R,ugm-3,290,R,ugm-3
08-01-1990,13:00,,,,161,R,ugm-3,78,R,ugm-3,325,R,ugm-3
08-01-1990,14:00,,,,203,R,ugm-3,94,R,ugm-3,403,R,ugm-3
08-01-1990,15:00,,,,230,R,ugm-3,111,R,ugm-3,462,R,ugm-3
08-01-1990,16:00,,,,,,,,,,,,
08-01-1990,17:00,,,,390,R,ugm-3,111,R,ugm-3,707,R,ugm-3
08-01-1990,18:00,,,,586,R,ugm-3,111,R,ugm-3,1007,R,ugm-3
08-01-1990,19:00,,,,643,R,ugm-3,115,R,ugm-3,1096,R,ugm-3
08-01-1990,20:00,,,,826,R,ugm-3,126,R,ugm-3,1389,R,ugm-3
08-01-1990,21:00,,,,778,R,ugm-3,126,R,ugm-3,1314,R,ugm-3
08-01-1990,22:00,,,,681,R,ugm-3,120,R,ugm-3,1161,R,ugm-3
08-01-1990,23:00,,,,581,R,ugm-3,117,R,ugm-3,1005,R,ugm-3
08-01-1990,24:00,,,,485,R,ugm-3,107,R,ugm-3,848,R,ugm-3
09-01-1990,01:00,,,,333,R,ugm-3,80,R,ugm-3,588,R,ugm-3
09-01-1990,02:00,,,,215,R,ugm-3,65,R,ugm-3,393,R,ugm-3
09-01-1990,03:00,,,,71,R,ugm-3,52,R,ugm-3,160,R,ugm-3
09-01-1990,04:00,,,,44,R,ugm-3,48,R,ugm-3,115,R,ugm-3
09-01-1990,05:00,,,,34,R,ugm-3,40,R,ugm-3,92,R,ugm-3
09-01-1990,06:00,,,,19,R,ugm-3,34,R,ugm-3,63,R,ugm-3
09-01-1990,07:00,,,,30,R,ugm-3,42,R,ugm-3,88,R,ugm-3
09-01-1990,08:00,,,,129,R,ugm-3,61,R,ugm-3,258,R,ugm-3
09-01-1990,09:00,,,,256,R,ugm-3,82,R,ugm-3,474,R,ugm-3
09-01-1990,10:00,,,,205,R,ugm-3,73,R,ugm-3,386,R,ugm-3
09-01-1990,11:00,,,,176,R,ugm-3,80,R,ugm-3,350,R,ugm-3
09-01-1990,12:00,,,,174,R,ugm-3,80,R,ugm-3,346,R,ugm-3
09-01-1990,13:00,,,,163,R,ugm-3,76,R,ugm-3,325,R,ugm-3
09-01-1990,14:00,,,,,,,,,,,,
09-01-1990,15:00,,,,174,R,ugm-3,74,R,ugm-3,340,R,ugm-3
09-01-1990,16:00,,,,179,R,ugm-3,71,R,ugm-3,344,R,ugm-3
09-01-1990,17:00,,,,180,R,ugm-3,63,R,ugm-3,338,R,ugm-3
09-01-1990,18:00,,,,233,R,ugm-3,63,R,ugm-3,418,R,ugm-3
09-01-1990,19:00,,,,251,R,ugm-3,65,R,ugm-3,449,R,ugm-3
09-01-1990,20:00,,,,253,R,ugm-3,57,R,ugm-3,443,R,ugm-3
09-01-1990,21:00,,,,171,R,ugm-3,55,R,ugm-3,317,R,ugm-3
09-01-1990,22:00,,,,116,R,ugm-3,53,R,ugm-3,231,R,ugm-3
09-01-1990,23:00,,,,64,R,ugm-3,52,R,ugm-3,149,R,ugm-3
09-01-1990,24:00,,,,76,R,ugm-3,50,R,ugm-3,166,R,ugm-3
10-01-1990,01:00,,,,58,R,ugm-3,50,R,ugm-3,138,R,ugm-3
10-01-1990,02:00,,,,18,R,ugm-3,29,R,ugm-3,55,R,ugm-3
10-01-1990,03:00,,,,9,R,ugm-3,17,R,ugm-3,31,R,ugm-3
10-01-1990,04:00,,,,5,R,ugm-3,15,R,ugm-3,23,R,ugm-3
10-01-1990,05:00,,,,8,R,ugm-3,15,R,ugm-3,27,R,ugm-3
10-01-1990,06:00,,,,10,R,ugm-3,25,R,ugm-3,40,R,ugm-3
10-01-1990,07:00,,,,30,R,ugm-3,38,R,ugm-3,84,R,ugm-3
10-01-1990,08:00,,,,60,R,ugm-3,55,R,ugm-3,147,R,ugm-3
10-01-1990,09:00,,,,53,R,ugm-3,55,R,ugm-3,136,R,ugm-3
10-01-1990,10:00,,,,45,R,ugm-3,59,R,ugm-3,128,R,ugm-3
10-01-1990,11:00,,,,43,R,ugm-3,55,R,ugm-3,120,R,ugm-3
10-01-1990,12:00,,,,64,R,ugm-3,63,R,ugm-3,160,R,ugm-3
10-01-1990,13:00,,,,51,R,ugm-3,55,R,ugm-3,134,R,ugm-3
10-01-1990,14:00,,,,46,R,ugm-3,55,R,ugm-3,126,R,ugm-3
10-01-1990,15:00,,,,44,R,ugm-3,55,R,ugm-3,122,R,ugm-3
10-01-1990,16:00,,,,108,R,ugm-3,67,R,ugm-3,231,R,ugm-3
10-01-1990,17:00,,,,73,R,ugm-3,67,R,ugm-3,178,R,ugm-3
10-01-1990,18:00,,,,85,R,ugm-3,65,R,ugm-3,195,R,ugm-3
10-01-1990,19:00,,,,93,R,ugm-3,65,R,ugm-3,206,R,ugm-3
10-01-1990,20:00,,,,61,R,ugm-3,59,R,ugm-3,153,R,ugm-3
10-01-1990,21:00,,,,34,R,ugm-3,55,R,ugm-3,107,R,ugm-3
10-01-1990,22:00,,,,21,R,ugm-3,46,R,ugm-3,78,R,ugm-3
10-01-1990,23:00,,,,15,R,ugm-3,40,R,ugm-3,63,R,ugm-3
10-01-1990,24:00,,,,13,R,ugm-3,36,R,ugm-3,55,R,ugm-3
11-01-1990,01:00,,,,10,R,ugm-3,29,R,ugm-3,44,R,ugm-3
11-01-1990,02:00,,,,6,R,ugm-3,19,R,ugm-3,29,R,ugm-3
11-01-1990,03:00,,,,4,R,ugm-3,15,R,ugm-3,21,R,ugm-3
11-01-1990,04:00,,,,4,R,ugm-3,10,R,ugm-3,15,R,ugm-3
11-01-1990,05:00,,,,3,R,ugm-3,10,R,ugm-3,13,R,ugm-3
11-01-1990,06:00,,,,6,R,ugm-3,15,R,ugm-3,25,R,ugm-3
11-01-1990,07:00,,,,19,R,ugm-3,32,R,ugm-3,61,R,ugm-3
11-01-1990,08:00,,,,43,R,ugm-3,59,R,ugm-3,124,R,ugm-3
11-01-1990,09:00,,,,76,R,ugm-3,69,R,ugm-3,185,R,ugm-3
11-01-1990,10:00,,,,83,R,ugm-3,71,R,ugm-3,197,R,ugm-3
11-01-1990,11:00,,,,59,R,ugm-3,59,R,ugm-3,149,R,ugm-3
11-01-1990,12:00,,,,49,R,ugm-3,55,R,ugm-3,130,R,ugm-3
11-01-1990,13:00,,,,51,R,ugm-3,57,R,ugm-3,136,R,ugm-3
11-01-1990,14:00,,,,35,R,ugm-3,50,R,ugm-3,103,R,ugm-3
11-01-1990,15:00,,,,41,R,ugm-3,53,R,ugm-3,117,R,ugm-3
11-01-1990,16:00,,,,41,R,ugm-3,59,R,ugm-3,122,R,ugm-3
11-01-1990,17:00,,,,38,R,ugm-3,61,R,ugm-3,118,R,ugm-3
11-01-1990,18:00,,,,38,R,ugm-3,61,R,ugm-3,118,R,ugm-3
11-01-1990,19:00,,,,49,R,ugm-3,63,R,ugm-3,138,R,ugm-3
11-01-1990,20:00,,,,80,R,ugm-3,65,R,ugm-3,187,R,ugm-3
11-01-1990,21:00,,,,60,R,ugm-3,61,R,ugm-3,153,R,ugm-3
11-01-1990,22:00,,,,54,R,ugm-3,59,R,ugm-3,141,R,ugm-3
11-01-1990,23:00,,,,65,R,ugm-3,63,R,ugm-3,162,R,ugm-3
11-01-1990,24:00,,,,55,R,ugm-3,61,R,ugm-3,145,R,ugm-3
12-01-1990,01:00,,,,31,R,ugm-3,42,R,ugm-3,90,R,ugm-3
12-01-1990,02:00,,,,14,R,ugm-3,31,R,ugm-3,52,R,ugm-3
12-01-1990,03:00,,,,6,R,ugm-3,23,R,ugm-3,32,R,ugm-3
12-01-1990,04:00,,,,6,R,ugm-3,19,R,ugm-3,29,R,ugm-3
12-01-1990,05:00,,,,10,R,ugm-3,29,R,ugm-3,44,R,ugm-3
12-01-1990,06:00,,,,16,R,ugm-3,32,R,ugm-3,57,R,ugm-3
12-01-1990,07:00,,,,41,R,ugm-3,48,R,ugm-3,111,R,ugm-3
12-01-1990,08:00,,,,51,R,ugm-3,55,R,ugm-3,134,R,ugm-3
12-01-1990,09:00,,,,68,R,ugm-3,59,R,ugm-3,162,R,ugm-3
12-01-1990,10:00,,,,74,R,ugm-3,59,R,ugm-3,172,R,ugm-3
12-01-1990,11:00,,,,80,R,ugm-3,63,R,ugm-3,185,R,ugm-3
12-01-1990,12:00,,,,78,R,ugm-3,61,R,ugm-3,180,R,ugm-3
12-01-1990,13:00,,,,60,R,ugm-3,52,R,ugm-3,143,R,ugm-3
12-01-1990,14:00,,,,43,R,ugm-3,46,R,ugm-3,111,R,ugm-3
12-01-1990,15:00,,,,45,R,ugm-3,52,R,ugm-3,120,R,ugm-3
12-01-1990,16:00,,,,76,R,ugm-3,59,R,ugm-3,176,R,ugm-3
12-01-1990,17:00,,,,83,R,ugm-3,63,R,ugm-3,189,R,ugm-3
12-01-1990,18:00,,,,85,R,ugm-3,59,R,ugm-3,189,R,ugm-3
12-01-1990,19:00,,,,114,R,ugm-3,63,R,ugm-3,237,R,ugm-3
12-01-1990,20:00,,,,124,R,ugm-3,57,R,ugm-3,246,R,ugm-3
12-01-1990,21:00,,,,100,R,ugm-3,57,R,ugm-3,210,R,ugm-3
12-01-1990,22:00,,,,35,R,ugm-3,55,R,ugm-3,109,R,ugm-3
12-01-1990,23:00,,,,20,R,ugm-3,63,R,ugm-3,94,R,ugm-3
12-01-1990,24:00,,,,14,R,ugm-3,63,R,ugm-3,84,R,ugm-3
13-01-1990,01:00,,,,18,R,ugm-3,65,R,ugm-3,92,R,ugm-3
13-01-1990,02:00,,,,34,R,ugm-3,71,R,ugm-3,122,R,ugm-3
13-01-1990,03:00,,,,36,R,ugm-3,67,R,ugm-3,122,R,ugm-3
13-01-1990,04:00,,,,29,R,ugm-3,61,R,ugm-3,105,R,ugm-3
13-01-1990,05:00,,,,30,R,ugm-3,59,R,ugm-3,105,R,ugm-3
13-01-1990,06:00,,,,34,R,ugm-3,55,R,ugm-3,107,R,ugm-3
13-01-1990,07:00,,,,58,R,ugm-3,59,R,ugm-3,147,R,ugm-3
13-01-1990,08:00,,,,126,R,ugm-3,57,R,ugm-3,250,R,ugm-3
13-01-1990,09:00,,,,224,R,ugm-3,65,R,ugm-3,407,R,ugm-3
13-01-1990,10:00,,,,178,R,ugm-3,63,R,ugm-3,334,R,ugm-3
13-01-1990,11:00,,,,253,R,ugm-3,86,R,ugm-3,472,R,ugm-3
13-01-1990,12:00,,,,199,R,ugm-3,94,R,ugm-3,397,R,ugm-3
13-01-1990,13:00,,,,159,R,ugm-3,97,R,ugm-3,340,R,ugm-3
13-01-1990,14:00,,,,135,R,ugm-3,94,R,ugm-3,300,R,ugm-3
13-01-1990,15:00,,,,71,R,ugm-3,76,R,ugm-3,185,R,ugm-3
13-01-1990,16:00,,,,104,R,ugm-3,82,R,ugm-3,241,R,ugm-3
13-01-1990,17:00,,,,229,R,ugm-3,94,R,ugm-3,443,R,ugm-3
13-01-1990,18:00,,,,240,R,ugm-3,94,R,ugm-3,460,R,ugm-3
13-01-1990,19:00,,,,293,R,ugm-3,88,R,ugm-3,535,R,ugm-3
13-01-1990,20:00,,,,324,R,ugm-3,80,R,ugm-3,575,R,ugm-3
13-01-1990,21:00,,,,288,R,ugm-3,76,R,ugm-3,516,R,ugm-3
13-01-1990,22:00,,,,256,R,ugm-3,74,R,ugm-3,466,R,ugm-3
13-01-1990,23:00,,,,266,R,ugm-3,80,R,ugm-3,487,R,ugm-3
13-01-1990,24:00,,,,238,R,ugm-3,76,R,ugm-3,439,R,ugm-3
14-01-1990,01:00,,,,208,R,ugm-3,74,R,ugm-3,392,R,ugm-3
14-01-1990,02:00,,,,164,R,ugm-3,71,R,ugm-3,321,R,ugm-3
14-01-1990,03:00,,,,99,R,ugm-3,71,R,ugm-3,222,R,ugm-3
14-01-1990,04:00,,,,55,R,ugm-3,69,R,ugm-3,153,R,ugm-3
14-01-1990,05:00,,,,34,R,ugm-3,67,R,ugm-3,118,R,ugm-3
14-01-1990,06:00,,,,26,R,ugm-3,65,R,ugm-3,105,R,ugm-3
14-01-1990,07:00,,,,31,R,ugm-3,69,R,ugm-3,117,R,ugm-3
14-01-1990,08:00,,,,41,R,ugm-3,69,R,ugm-3,132,R,ugm-3
14-01-1990,09:00,,,,48,R,ugm-3,69,R,ugm-3,141,R,ugm-3
14-01-1990,10:00,,,,58,R,ugm-3,69,R,ugm-3,157,R,ugm-3
14-01-1990,11:00,,,,55,R,ugm-3,69,R,ugm-3,153,R,ugm-3
14-01-1990,12:00,,,,73,R,ugm-3,69,R,ugm-3,180,R,ugm-3
14-01-1990,13:00,,,,69,R,ugm-3,63,R,ugm-3,168,R,ugm-3
14-01-1990,14:00,,,,54,R,ugm-3,61,R,ugm-3,143,R,ugm-3
14-01-1990,15:00,,,,50,R,ugm-3,61,R,ugm-3,138,R,ugm-3
14-01-1990,16:00,,,,86,R,ugm-3,71,R,ugm-3,202,R,ugm-3
14-01-1990,17:00,,,,139,R,ugm-3,74,R,ugm-3,287,R,ugm-3
14-01-1990,18:00,,,,160,R,ugm-3,71,R,ugm-3,315,R,ugm-3
14-01-1990,19:00,,,,131,R,ugm-3,67,R,ugm-3,267,R,ugm-3
14-01-1990,20:00,,,,246,R,ugm-3,67,R,ugm-3,443,R,ugm-3
14-01-1990,21:00,,,,154,R,ugm-3,65,R,ugm-3,300,R,ugm-3
14-01-1990,22:00,,,,108,R,ugm-3,61,R,ugm-3,225,R,ugm-3
14-01-1990,23:00,,,,65,R,ugm-3,63,R,ugm-3,162,R,ugm-3
14-01-1990,24:00,,,,38,R,ugm-3,55,R,ugm-3,113,R,ugm-3
15-01-1990,01:00,,,,19,R,ugm-3,46,R,ugm-3,74,R,ugm-3
15-01-1990,02:00,,,,8,R,ugm-3,27,R,ugm-3,38,R,ugm-3
15-01-1990,03:00,,,,4,R,ugm-3,17,R,ugm-3,23,R,ugm-3
15-01-1990,04:00,,,,4,R,ugm-3,11,R,ugm-3,17,R,ugm-3
15-01-1990,05:00,,,,4,R,ugm-3,10,R,ugm-3,15,R,ugm-3
15-01-1990,06:00,,,,6,R,ugm-3,23,R,ugm-3,32,R,ugm-3
15-01-1990,07:00,,,,30,R,ugm-3,50,R,ugm-3,96,R,ugm-3
15-01-1990,08:00,,,,99,R,ugm-3,82,R,ugm-3,233,R,ugm-3
15-01-1990,09:00,,,,108,R,ugm-3,82,R,ugm-3,246,R,ugm-3
15-01-1990,10:00,,,,105,R,ugm-3,74,R,ugm-3,235,R,ugm-3
15-01-1990,11:00,,,,90,R,ugm-3,67,R,ugm-3,204,R,ugm-3
15-01-1990,12:00,,,,101,R,ugm-3,67,R,ugm-3,222,R,ugm-3
15-01-1990,13:00,,,,,,,,,,,,
15-01-1990,14:00,,,,108,R,ugm-3,61,R,ugm-3,225,R,ugm-3
15-01-1990,15:00,,,,114,R,ugm-3,65,R,ugm-3,239,R,ugm-3
15-01-1990,16:00,,,,104,R,ugm-3,57,R,ugm-3,216,R,ugm-3
15-01-1990,17:00,,,,95,R,ugm-3,55,R,ugm-3,201,R,ugm-3
15-01-1990,18:00,,,,64,R,ugm-3,52,R,ugm-3,149,R,ugm-3
15-01-1990,19:00,,,,73,R,ugm-3,50,R,ugm-3,160,R,ugm-3
15-01-1990,20:00,,,,58,R,ugm-3,48,R,ugm-3,136,R,ugm-3
15-01-1990,21:00,,,,36,R,ugm-3,46,R,ugm-3,101,R,ugm-3
15-01-1990,22:00,,,,26,R,ugm-3,46,R,ugm-3,86,R,ugm-3
15-01-1990,23:00,,,,15,R,ugm-3,36,R,ugm-3,59,R,ugm-3
15-01-1990,24:00,,,,15,R,ugm-3,34,R,ugm-3,57,R,ugm-3
16-01-1990,01:00,,,,8,R,ugm-3,29,R,ugm-3,40,R,ugm-3
16-01-1990,02:00,,,,3,R,ugm-3,13,R,ugm-3,17,R,ugm-3
16-01-1990,03:00,,,,0,R,ugm-3,17,R,ugm-3,17,R,ugm-3
16-01-1990,04:00,,,,4,R,ugm-3,23,R,ugm-3,29,R,ugm-3
16-01-1990,05:00,,,,4,R,ugm-3,23,R,ugm-3,29,R,ugm-3
16-01-1990,06:00,,,,5,R,ugm-3,25,R,ugm-3,32,R,ugm-3
16-01-1990,07:00,,,,24,R,ugm-3,44,R,ugm-3,80,R,ugm-3
16-01-1990,08:00,,,,50,R,ugm-3,55,R,ugm-3,132,R,ugm-3
16-01-1990,09:00,,,,56,R,ugm-3,61,R,ugm-3,147,R,ugm-3
16-01-1990,10:00,,,,43,R,ugm-3,59,R,ugm-3,124,R,ugm-3
16-01-1990,11:00,,,,41,R,ugm-3,53,R,ugm-3,117,R,ugm-3
16-01-1990,12:00,,,,34,R,ugm-3,53,R,ugm-3,105,R,ugm-3
16-01-1990,13:00,,,,50,R,ugm-3,59,R,ugm-3,136,R,ugm-3
16-01-1990,14:00,,,,30,R,ugm-3,52,R,ugm-3,97,R,ugm-3
16-01-1990,15:00,,,,53,R,ugm-3,57,R,ugm-3,138,R,ugm-3
16-01-1990,16:00,,,,66,R,ugm-3,63,R,ugm-3,164,R,ugm-3
16-01-1990,17:00,,,,48,R,ugm-3,63,R,ugm-3,136,R,ugm-3
16-01-1990,18:00,,,,31,R,ugm-3,55,R,ugm-3,103,R,ugm-3
16-01-1990,19:00,,,,31,R,ugm-3,53,R,ugm-3,101,R,ugm-3
16-01-1990,20:00,,,,21,R,ugm-3,48,R,ugm-3,80,R,ugm-3
16-01-1990,21:00,,,,13,R,ugm-3,38,R,ugm-3,57,R,ugm-3
16-01-1990,22:00,,,,6,R,ugm-3,31,R,ugm-3,40,R,ugm-3
16-01-1990,23:00,,,,8,R,ugm-3,27,R,ugm-3,38,R,ugm-3
16-01-1990,24:00,,,,6,R,ugm-3,17,R,ugm-3,27,R,ugm-3
17-01-1990,01:00,,,,4,R,ugm-3,13,R,ugm-3,19,R,ugm-3
17-01-1990,02:00,,,,4,R,ugm-3,15,R,ugm-3,21,R,ugm-3
17-01-1990,03:00,,,,0,R,ugm-3,17,R,ugm-3,17,R,ugm-3
17-01-1990,04:00,,,,3,R,ugm-3,19,R,ugm-3,23,R,ugm-3
17-01-1990,05:00,,,,5,R,ugm-3,19,R,ugm-3,27,R,ugm-3
17-01-1990,06:00,,,,5,R,ugm-3,27,R,ugm-3,34,R,ugm-3
17-01-1990,07:00,,,,33,R,ugm-3,53,R,ugm-3,103,R,ugm-3
17-01-1990,08:00,,,,86,R,ugm-3,69,R,ugm-3,201,R,ugm-3
17-01-1990,09:00,,,,85,R,ugm-3,74,R,ugm-3,204,R,ugm-3
17-01-1990,10:00,,,,100,R,ugm-3,76,R,ugm-3,229,R,ugm-3
17-01-1990,11:00,,,,80,R,ugm-3,69,R,ugm-3,191,R,ugm-3
17-01-1990,12:00,,,,65,R,ugm-3,63,R,ugm-3,162,R,ugm-3
17-01-1990,13:00,,,,51,R,ugm-3,57,R,ugm-3,136,R,ugm-3
17-01-1990,14:00,,,,38,R,ugm-3,55,R,ugm-3,113,R,ugm-3
17-01-1990,15:00,,,,39,R,ugm-3,57,R,ugm-3,117,R,ugm-3
17-01-1990,16:00,,,,33,R,ugm-3,61,R,ugm-3,111,R,ugm-3
17-01-1990,17:00,,,,58,R,ugm-3,74,R,ugm-3,162,R,ugm-3
17-01-1990,18:00,,,,169,R,ugm-3,73,R,ugm-3,330,R,ugm-3
17-01-1990,19:00,,,,214,R,ugm-3,73,R,ugm-3,399,R,ugm-3
17-01-1990,20:00,,,,261,R,ugm-3,69,R,ugm-3,468,R,ugm-3
17-01-1990,21:00,,,,185,R,ugm-3,67,R,ugm-3,350,R,ugm-3
17-01-1990,22:00,,,,113,R,ugm-3,67,R,ugm-3,239,R,ugm-3
17-01-1990,23:00,,,,100,R,ugm-3,67,R,ugm-3,220,R,ugm-3
17-01-1990,24:00,,,,84,R,ugm-3,63,R,ugm-3,191,R,ugm-3
18-01-1990,01:00,,,,48,R,ugm-3,57,R,ugm-3,130,R,ugm-3
18-01-1990,02:00,,,,19,R,ugm-3,57,R,ugm-3,86,R,ugm-3
18-01-1990,03:00,,,,8,R,ugm-3,52,R,ugm-3,63,R,ugm-3
18-01-1990,04:00,,,,16,R,ugm-3,52,R,ugm-3,76,R,ugm-3
18-01-1990,05:00,,,,15,R,ugm-3,48,R,ugm-3,71,R,ugm-3
18-01-1990,06:00,,,,25,R,ugm-3,46,R,ugm-3,84,R,ugm-3
18-01-1990,07:00,,,,119,R,ugm-3,57,R,ugm-3,239,R,ugm-3
18-01-1990,08:00,,,,206,R,ugm-3,65,R,ugm-3,380,R,ugm-3
18-01-1990,09:00,,,,260,R,ugm-3,65,R,ugm-3,462,R,ugm-3
18-01-1990,10:00,,,,251,R,ugm-3,76,R,ugm-3,460,R,ugm-3
18-01-1990,11:00,,,,196,R,ugm-3,80,R,ugm-3,380,R,ugm-3
18-01-1990,12:00,,,,168,R,ugm-3,84,R,ugm-3,340,R,ugm-3
18-01-1990,13:00,,,,96,R,ugm-3,74,R,ugm-3,222,R,ugm-3
18-01-1990,14:00,,,,99,R,ugm-3,78,R,ugm-3,229,R,ugm-3
18-01-1990,15:00,,,,90,R,ugm-3,73,R,ugm-3,210,R,ugm-3
18-01-1990,16:00,,,,98,R,ugm-3,73,R,ugm-3,222,R,ugm-3
18-01-1990,17:00,,,,183,R,ugm-3,71,R,ugm-3,350,R,ugm-3
18-01-1990,18:00,,,,159,R,ugm-3,73,R,ugm-3,315,R,ugm-3
18-01-1990,19:00,,,,144,R,ugm-3,69,R,ugm-3,288,R,ugm-3
18-01-1990,20:00,,,,140,R,ugm-3,65,R,ugm-3,279,R,ugm-3
18-01-1990,21:00,,,,65,R,ugm-3,69,R,ugm-3,168,R,ugm-3
18-01-1990,22:00,,,,54,R,ugm-3,67,R,ugm-3,149,R,ugm-3
18-01-1990,23:00,,,,56,R,ugm-3,65,R,ugm-3,151,R,ugm-3
18-01-1990,24:00,,,,26,R,ugm-3,52,R,ugm-3,92,R,ugm-3
19-01-1990,01:00,,,,13,R,ugm-3,40,R,ugm-3,59,R,ugm-3
19-01-1990,02:00,,,,5,R,ugm-3,29,R,ugm-3,36,R,ugm-3
19-01-1990,03:00,,,,4,R,ugm-3,21,R,ugm-3,27,R,ugm-3
19-01-1990,04:00,,,,3,R,ugm-3,13,R,ugm-3,17,R,ugm-3
19-01-1990,05:00,,,,4,R,ugm-3,10,R,ugm-3,15,R,ugm-3
19-01-1990,06:00,,,,5,R,ugm-3,13,R,ugm-3,21,R,ugm-3
19-01-1990,07:00,,,,11,R,ugm-3,31,R,ugm-3,48,R,ugm-3
19-01-1990,08:00,,,,24,R,ugm-3,46,R,ugm-3,82,R,ugm-3
19-01-1990,09:00,,,,41,R,ugm-3,57,R,ugm-3,120,R,ugm-3